Date,Time,Wetness (Wet Dry or Ice),Wind Speed (m/s),Temperature (C),Humidity (%),Pressure (mb),Radiation (W/m^2)
2020-04-22,23:20:00,DRY,2.37,3.90,36.7,770.00,0.9
2020-04-22,23:25:00,DRY,2.40,4.00,34.5,770.00,1.9
2020-04-22,23:30:00,DRY,1.87,4.00,33.0,770.00,1.6
2020-04-22,23:35:00,DRY,1.05,4.35,25.0,770.00,1.4
2020-04-22,23:40:00,DRY,1.03,4.77,20.3,770.00,1.2
2020-04-22,23:45:00,DRY,0.85,5.05,16.0,770.00,1.3
2020-04-22,23:50:00,DRY,0.33,5.27,15.0,770.00,1.0
2020-04-22,23:55:00,DRY,0.10,5.30,15.0,770.00,1.2
2020-04-23,00:00:00,DRY,1.00,5.20,15.7,770.00,1.6
2020-04-23,00:05:00,DRY,0.70,5.20,16.5,770.00,1.9
2020-04-23,00:10:00,DRY,0.33,5.23,16.7,770.00,1.2
2020-04-23,00:15:00,DRY,0.45,5.25,16.0,770.00,1.1
2020-04-23,00:20:00,DRY,0.57,5.10,18.7,770.00,1.4
2020-04-23,00:25:00,DRY,0.55,4.90,20.0,770.00,1.4
2020-04-23,00:30:00,DRY,0.60,4.57,23.0,770.00,0.8
2020-04-23,00:35:00,DRY,0.55,4.40,23.0,770.00,1.2
2020-04-23,00:40:00,DRY,0.73,4.33,23.3,770.00,1.3
2020-04-23,00:45:00,DRY,1.55,4.05,24.0,770.00,1.5
2020-04-23,00:50:00,DRY,1.13,3.93,22.7,770.00,1.8
2020-04-23,00:55:00,DRY,2.05,3.90,19.5,770.00,0.9
2020-04-23,01:00:00,DRY,1.27,3.80,21.3,770.00,0.6
2020-04-23,01:05:00,DRY,1.40,3.75,26.0,770.00,0.6
2020-04-23,01:10:00,DRY,1.73,3.57,30.0,770.00,0.7
2020-04-23,01:15:00,DRY,2.10,3.60,29.0,770.00,1.5
2020-04-23,01:20:00,DRY,1.60,3.73,26.7,770.00,1.7
2020-04-23,01:25:00,DRY,0.95,3.70,27.0,770.00,1.1
2020-04-23,01:30:00,DRY,1.80,3.20,25.3,770.00,1.3
2020-04-23,01:35:00,DRY,2.35,2.65,27.0,770.00,2.5
2020-04-23,01:40:00,DRY,1.63,2.57,28.0,769.33,0.9
2020-04-23,01:45:00,DRY,2.15,2.70,27.0,769.00,0.5
2020-04-23,01:50:00,DRY,2.00,2.80,25.7,769.00,1.6
2020-04-23,01:55:00,DRY,2.35,2.95,26.0,769.00,1.6
2020-04-23,02:00:00,DRY,1.27,3.10,23.7,769.00,1.1
2020-04-23,02:05:00,DRY,0.25,3.30,23.0,769.00,0.7
2020-04-23,02:10:00,DRY,0.73,3.63,21.7,769.00,0.3
2020-04-23,02:15:00,DRY,0.45,4.10,19.5,769.00,2.5
2020-04-23,02:20:00,DRY,0.70,4.13,18.7,769.00,1.2
2020-04-23,02:25:00,DRY,1.35,4.30,18.0,769.00,1.2
2020-04-23,02:30:00,DRY,1.77,3.93,19.0,769.00,1.6
2020-04-23,02:35:00,DRY,2.15,3.65,18.5,769.00,0.8
2020-04-23,02:40:00,DRY,1.37,3.53,18.3,769.00,1.7
2020-04-23,02:45:00,DRY,1.55,3.45,19.0,769.00,0.7
2020-04-23,02:50:00,DRY,1.57,3.27,20.0,769.00,2.1
2020-04-23,02:55:00,DRY,1.40,3.55,18.0,769.00,0.9
2020-04-23,03:00:00,DRY,2.03,3.63,18.0,769.00,1.0
2020-04-23,03:05:00,DRY,1.65,3.70,17.0,769.00,0.9
2020-04-23,03:10:00,DRY,2.30,3.70,18.0,769.00,1.7
2020-04-23,03:15:00,DRY,2.15,3.95,18.0,769.00,1.8
2020-04-23,03:20:00,DRY,2.13,3.83,18.3,769.00,1.5
2020-04-23,03:25:00,DRY,2.40,3.75,18.0,768.50,1.1
2020-04-23,03:30:00,DRY,2.33,3.73,18.0,768.67,0.2
2020-04-23,03:35:00,DRY,2.25,3.50,19.5,768.50,0.5
2020-04-23,03:40:00,DRY,2.63,3.20,20.7,768.00,2.1
2020-04-23,03:45:00,DRY,2.70,3.15,21.5,768.00,1.8
2020-04-23,03:50:00,DRY,2.97,3.03,22.7,768.33,1.8
2020-04-23,03:55:00,DRY,3.20,3.00,23.0,768.00,1.1
2020-04-23,04:00:00,DRY,3.67,2.90,24.3,768.33,0.8
2020-04-23,04:05:00,DRY,3.65,2.90,25.5,768.00,1.6
2020-04-23,04:10:00,DRY,4.93,2.93,26.0,768.00,1.3
2020-04-23,04:15:00,DRY,3.35,3.05,24.5,768.00,1.1
2020-04-23,04:20:00,DRY,3.60,3.10,24.3,768.33,1.1
2020-04-23,04:25:00,DRY,3.90,3.00,24.5,768.00,1.1
2020-04-23,04:30:00,DRY,3.13,3.00,24.7,769.00,0.9
2020-04-23,04:35:00,DRY,3.85,3.00,24.5,769.00,0.9
2020-04-23,04:40:00,DRY,2.90,3.15,21.5,769.00,1.4
2020-04-23,04:45:00,DRY,3.40,3.20,22.0,769.00,1.2
2020-04-23,04:50:00,DRY,3.43,3.20,21.7,769.00,0.8
2020-04-23,04:55:00,DRY,3.50,3.25,21.0,768.00,1.2
2020-04-23,05:00:00,DRY,2.87,3.27,20.3,768.33,1.4
2020-04-23,05:05:00,DRY,3.55,3.30,20.0,768.50,1.1
2020-04-23,05:10:00,DRY,2.90,3.33,20.0,768.33,1.4
2020-04-23,05:15:00,DRY,3.30,3.45,18.5,768.00,1.1
2020-04-23,05:20:00,DRY,3.33,3.50,19.0,768.00,1.5
2020-04-23,05:25:00,DRY,3.05,3.40,19.5,768.00,1.9
2020-04-23,05:30:00,DRY,2.40,2.97,23.7,768.00,0.8
2020-04-23,05:35:00,DRY,2.95,3.05,21.0,768.00,1.6
2020-04-23,05:40:00,DRY,1.53,3.30,20.7,768.33,1.4
2020-04-23,05:45:00,DRY,3.85,3.35,20.0,768.00,1.1
2020-04-23,05:50:00,DRY,3.70,3.33,20.0,768.00,1.4
2020-04-23,05:55:00,DRY,4.80,3.40,19.5,768.00,1.4
2020-04-23,06:00:00,DRY,3.30,3.20,21.7,768.00,1.1
2020-04-23,06:05:00,DRY,4.30,3.10,24.0,768.00,1.2
2020-04-23,06:10:00,DRY,3.47,2.97,24.7,768.00,1.5
2020-04-23,06:15:00,DRY,4.15,2.90,25.5,768.00,0.8
2020-04-23,06:20:00,DRY,4.00,2.73,27.7,768.00,0.9
2020-04-23,06:25:00,DRY,3.35,2.60,29.0,768.00,2.2
2020-04-23,06:30:00,DRY,2.87,1.87,48.7,768.33,1.8
2020-04-23,06:35:00,DRY,4.10,0.75,84.5,768.00,3.6
2020-04-23,06:40:00,DRY,5.00,0.73,93.7,768.00,4.9
2020-04-23,06:45:00,WET,4.45,1.25,98.5,769.00,7.6
2020-04-23,06:50:00,DRY,2.50,1.50,100.0,769.00,14.2
2020-04-23,06:55:00,DRY,3.55,1.60,100.0,769.00,21.2
2020-04-23,07:00:00,WET,2.83,1.70,100.0,769.00,23.4
2020-04-23,07:05:00,WET,3.00,1.85,100.0,769.00,34.9
2020-04-23,07:10:00,WET,3.37,1.97,100.0,769.00,53.7
2020-04-23,07:15:00,WET,3.25,2.10,100.0,769.00,68.2
2020-04-23,07:20:00,WET,3.27,2.10,100.0,769.00,80.6
2020-04-23,07:25:00,WET,4.15,2.05,100.0,769.00,102.2
2020-04-23,07:30:00,DRY,3.93,1.80,100.0,769.00,143.0
2020-04-23,07:35:00,DRY,5.35,1.75,100.0,769.00,146.3
2020-04-23,07:40:00,DRY,5.07,1.70,100.0,769.00,168.8
2020-04-23,07:45:00,WET,4.20,1.75,100.0,769.00,108.2
2020-04-23,07:50:00,WET,4.87,1.73,100.0,769.00,120.2
2020-04-23,07:55:00,WET,6.00,1.75,100.0,769.00,122.0
2020-04-23,08:00:00,DRY,4.50,1.67,100.0,769.00,137.9
2020-04-23,08:05:00,DRY,5.05,1.55,100.0,769.00,153.2
2020-04-23,08:10:00,WET,4.70,1.33,100.0,769.00,168.4
2020-04-23,08:15:00,WET,6.60,1.50,100.0,769.00,212.5
2020-04-23,08:20:00,WET,5.50,1.93,100.0,769.00,249.9
2020-04-23,08:25:00,WET,5.95,1.95,100.0,769.00,269.1
2020-04-23,08:30:00,WET,6.07,2.20,100.0,769.00,359.5
2020-04-23,08:35:00,WET,5.60,2.10,100.0,769.00,253.0
2020-04-23,08:40:00,WET,4.37,2.10,100.0,769.00,231.5
2020-04-23,08:45:00,WET,5.75,2.15,100.0,769.00,325.8
2020-04-23,08:50:00,WET,6.30,2.17,100.0,769.00,263.0
2020-04-23,08:55:00,DRY,6.75,2.00,100.0,769.00,280.4
2020-04-23,09:00:00,WET,4.73,1.87,100.0,769.00,222.8
2020-04-23,09:05:00,WET,4.75,1.95,100.0,769.00,222.3
2020-04-23,09:10:00,WET,5.60,2.03,100.0,769.00,195.3
2020-04-23,09:15:00,WET,4.70,1.75,100.0,769.00,182.3
2020-04-23,09:20:00,WET,4.13,1.77,100.0,769.00,256.1
2020-04-23,09:25:00,DRY,5.75,1.50,100.0,769.00,260.6
2020-04-23,09:30:00,WET,6.23,1.67,100.0,769.00,173.9
2020-04-23,09:35:00,WET,4.50,1.90,100.0,769.00,267.1
2020-04-23,09:40:00,WET,4.17,2.13,100.0,769.00,308.4
2020-04-23,09:45:00,WET,3.50,2.50,100.0,769.00,249.8
2020-04-23,09:50:00,WET,5.30,2.80,100.0,769.00,401.6
2020-04-23,09:55:00,WET,4.85,2.90,100.0,769.00,351.0
2020-04-23,10:00:00,WET,5.60,2.87,100.0,769.00,296.5
2020-04-23,10:05:00,WET,5.75,2.90,100.0,769.00,319.1
2020-04-23,10:10:00,WET,5.27,2.97,100.0,769.00,330.2
2020-04-23,10:15:00,WET,6.85,3.00,100.0,769.00,258.8
2020-04-23,10:20:00,WET,5.23,3.07,100.0,769.00,433.4
2020-04-23,10:25:00,WET,6.75,3.10,100.0,769.00,333.1
2020-04-23,10:30:00,WET,5.03,2.83,100.0,769.00,314.3
2020-04-23,10:35:00,WET,4.20,3.20,100.0,769.00,396.1
2020-04-23,10:40:00,WET,4.40,3.07,100.0,769.00,353.5
2020-04-23,10:45:00,WET,2.90,3.10,100.0,769.00,307.7
2020-04-23,10:50:00,WET,4.87,3.13,100.0,769.00,323.5
2020-04-23,10:55:00,WET,5.00,3.15,100.0,769.00,340.9
2020-04-23,11:00:00,WET,4.33,3.07,100.0,769.33,271.8
2020-04-23,11:05:00,WET,4.00,3.30,100.0,769.00,260.3
2020-04-23,11:10:00,WET,5.33,2.97,100.0,769.00,352.6
2020-04-23,11:15:00,WET,6.75,2.65,100.0,769.00,276.5
2020-04-23,11:20:00,WET,5.83,2.20,100.0,769.00,330.3
2020-04-23,11:25:00,WET,5.10,1.75,100.0,769.00,299.9
2020-04-23,11:30:00,WET,4.10,2.27,100.0,769.00,289.6
2020-04-23,11:35:00,WET,3.60,2.55,100.0,769.00,363.2
2020-04-23,11:40:00,WET,5.40,2.70,100.0,769.00,399.7
2020-04-23,11:45:00,WET,6.25,2.75,100.0,769.00,344.1
2020-04-23,11:50:00,WET,6.73,2.70,100.0,769.00,442.0
2020-04-23,11:55:00,WET,5.20,2.80,100.0,769.00,443.0
2020-04-23,12:00:00,WET,4.20,2.77,100.0,769.33,434.0
2020-04-23,12:05:00,WET,3.45,2.75,100.0,769.00,345.9
2020-04-23,12:10:00,WET,4.40,2.43,100.0,769.33,410.4
2020-04-23,12:15:00,WET,4.50,2.55,100.0,769.00,630.6
2020-04-23,12:20:00,WET,3.80,3.20,100.0,769.00,684.0
2020-04-23,12:25:00,WET,3.45,3.60,100.0,769.00,565.8
2020-04-23,12:30:00,WET,4.87,3.27,100.0,769.00,340.5
2020-04-23,12:35:00,WET,4.20,2.60,100.0,769.00,354.6
2020-04-23,12:40:00,WET,4.70,2.30,100.0,769.00,354.6
2020-04-23,12:45:00,WET,4.00,1.95,100.0,769.00,483.0
2020-04-23,12:50:00,WET,4.17,1.37,100.0,769.00,363.0
2020-04-23,12:55:00,WET,3.55,0.70,100.0,769.00,336.9
2020-04-23,13:00:00,WET,4.30,0.93,100.0,769.00,326.8
2020-04-23,13:05:00,WET,2.95,1.15,100.0,769.00,243.3
2020-04-23,13:10:00,WET,4.30,1.57,100.0,769.00,264.0
2020-04-23,13:15:00,WET,3.05,1.55,100.0,769.00,278.8
2020-04-23,13:20:00,WET,4.83,1.93,100.0,769.00,400.4
2020-04-23,13:25:00,WET,3.60,2.05,100.0,769.00,332.5
2020-04-23,13:30:00,WET,3.50,2.30,100.0,769.00,342.8
2020-04-23,13:35:00,WET,4.80,2.50,100.0,769.00,445.0
2020-04-23,13:40:00,WET,4.00,2.77,100.0,769.00,406.0
2020-04-23,13:45:00,WET,4.15,2.90,100.0,769.00,348.9
2020-04-23,13:50:00,WET,5.00,3.00,100.0,769.00,403.7
2020-04-23,13:55:00,WET,3.60,3.00,100.0,769.00,395.0
2020-04-23,14:00:00,WET,4.70,2.93,100.0,769.00,404.5
2020-04-23,14:05:00,WET,6.10,2.85,100.0,769.00,295.6
2020-04-23,14:10:00,WET,4.53,2.80,100.0,769.00,283.0
2020-04-23,14:15:00,WET,5.25,2.70,100.0,769.00,226.9
2020-04-23,14:20:00,WET,5.37,2.47,100.0,769.00,215.5
2020-04-23,14:25:00,WET,4.00,2.05,100.0,769.00,288.6
2020-04-23,14:30:00,WET,4.60,2.27,100.0,769.00,275.3
2020-04-23,14:35:00,WET,4.30,2.05,100.0,769.00,296.2
2020-04-23,14:40:00,WET,5.10,2.00,100.0,769.00,285.8
2020-04-23,14:45:00,WET,3.95,1.80,100.0,769.00,264.2
2020-04-23,14:50:00,WET,5.23,1.80,100.0,769.00,282.9
2020-04-23,14:55:00,WET,4.30,2.10,100.0,769.00,439.2
2020-04-23,15:00:00,WET,5.03,2.03,100.0,769.00,517.2
2020-04-23,15:05:00,WET,5.30,2.20,100.0,769.00,679.7
2020-04-23,15:10:00,WET,4.20,2.80,100.0,769.00,730.8
2020-04-23,15:15:00,WET,4.85,3.00,100.0,769.00,462.0
2020-04-23,15:20:00,WET,5.00,2.73,100.0,769.00,536.9
2020-04-23,15:25:00,WET,4.15,2.60,100.0,769.00,613.3
2020-04-23,15:30:00,WET,4.17,2.43,100.0,769.00,469.2
2020-04-23,15:35:00,DRY,3.65,2.50,100.0,769.00,473.3
2020-04-23,15:40:00,DRY,3.33,2.77,100.0,769.00,375.4
2020-04-23,15:45:00,DRY,4.45,2.45,100.0,769.00,457.8
2020-04-23,15:50:00,DRY,4.57,2.83,100.0,769.00,642.3
2020-04-23,15:55:00,DRY,3.75,2.80,100.0,769.00,438.9
2020-04-23,16:00:00,DRY,4.33,2.87,100.0,769.00,406.3
2020-04-23,16:05:00,WET,2.70,3.05,100.0,769.00,355.1
2020-04-23,16:10:00,WET,4.47,3.03,100.0,769.00,270.0
2020-04-23,16:15:00,WET,5.90,3.10,100.0,769.00,300.1
2020-04-23,16:20:00,WET,4.10,2.97,100.0,769.00,372.2
2020-04-23,16:25:00,WET,4.50,3.00,100.0,769.00,359.1
2020-04-23,16:30:00,WET,3.27,3.17,100.0,769.00,239.9
2020-04-23,16:35:00,WET,2.80,3.10,100.0,769.00,237.6
2020-04-23,16:40:00,WET,3.57,3.33,100.0,769.00,145.4
2020-04-23,16:45:00,WET,3.60,3.20,100.0,769.00,126.7
2020-04-23,16:50:00,WET,4.00,2.93,100.0,769.00,148.2
2020-04-23,16:55:00,WET,3.20,2.65,100.0,769.00,136.8
2020-04-23,17:00:00,WET,3.83,2.80,100.0,769.00,121.2
2020-04-23,17:05:00,WET,4.60,2.85,100.0,769.00,141.1
2020-04-23,17:10:00,WET,3.57,2.93,100.0,769.00,176.0
2020-04-23,17:15:00,WET,3.80,3.20,100.0,769.00,217.2
2020-04-23,17:20:00,WET,3.53,3.03,100.0,769.00,220.3
2020-04-23,17:25:00,WET,3.55,3.15,100.0,769.00,263.6
2020-04-23,17:30:00,WET,4.10,3.17,100.0,769.00,263.2
2020-04-23,17:35:00,WET,3.85,3.30,100.0,769.00,316.6
2020-04-23,17:40:00,WET,3.23,3.40,100.0,769.00,272.3
2020-04-23,17:45:00,WET,4.25,3.15,100.0,769.00,266.9
2020-04-23,17:50:00,WET,3.87,3.17,100.0,769.00,208.0
2020-04-23,17:55:00,WET,4.85,2.95,100.0,769.00,151.1
2020-04-23,18:00:00,WET,4.23,2.93,100.0,768.67,217.5
2020-04-23,18:05:00,WET,4.75,2.85,100.0,768.00,165.6
2020-04-23,18:10:00,WET,4.43,2.83,100.0,768.67,163.0
2020-04-23,18:15:00,WET,5.50,2.65,100.0,769.00,117.8
2020-04-23,18:20:00,WET,3.53,2.63,100.0,768.67,132.0
2020-04-23,18:25:00,WET,4.80,2.40,100.0,769.00,119.5
2020-04-23,18:30:00,WET,3.60,2.33,100.0,768.67,108.2
2020-04-23,18:35:00,WET,5.45,2.10,100.0,769.00,123.2
2020-04-23,18:40:00,WET,4.30,1.73,100.0,769.00,181.6
2020-04-23,18:45:00,WET,5.95,1.75,100.0,769.00,110.5
2020-04-23,18:50:00,WET,5.20,2.00,100.0,769.00,112.3
2020-04-23,18:55:00,WET,5.50,2.10,100.0,769.00,58.8
2020-04-23,19:00:00,WET,4.63,1.93,100.0,769.00,80.2
2020-04-23,19:05:00,WET,3.50,2.05,100.0,769.00,101.0
2020-04-23,19:10:00,WET,5.87,1.83,100.0,769.00,81.6
2020-04-23,19:15:00,WET,4.30,1.90,100.0,769.00,41.1
2020-04-23,19:20:00,WET,4.07,2.17,100.0,769.00,40.7
2020-04-23,19:25:00,WET,3.80,2.35,100.0,769.00,169.3
2020-04-23,19:30:00,WET,4.07,2.13,100.0,769.00,142.6
2020-04-23,19:35:00,WET,5.45,2.25,100.0,769.00,122.3
2020-04-23,19:40:00,WET,4.63,2.30,100.0,769.00,95.3
2020-04-23,19:45:00,WET,4.65,2.40,100.0,769.00,85.4
2020-04-23,19:50:00,WET,4.97,2.27,100.0,769.00,76.7
2020-04-23,19:55:00,WET,7.75,2.35,100.0,769.00,69.8
2020-04-23,20:00:00,WET,6.40,2.20,100.0,769.00,68.4
2020-04-23,20:05:00,WET,5.25,2.40,100.0,769.00,62.9
2020-04-23,20:10:00,WET,5.20,2.40,100.0,769.00,61.1
2020-04-23,20:15:00,WET,3.20,2.40,100.0,769.00,58.0
2020-04-23,20:20:00,WET,5.13,2.30,100.0,769.00,54.2
2020-04-23,20:25:00,WET,4.45,2.15,100.0,769.00,49.8
2020-04-23,20:30:00,WET,5.03,2.13,100.0,769.00,46.1
2020-04-23,20:35:00,WET,6.10,2.20,100.0,769.00,44.6
2020-04-23,20:40:00,WET,5.03,2.17,100.0,769.00,45.4
2020-04-23,20:45:00,WET,3.90,2.10,100.0,769.50,101.3
2020-04-23,20:50:00,WET,3.53,2.13,100.0,770.00,133.2
2020-04-23,20:55:00,WET,4.05,2.15,100.0,770.00,104.2
2020-04-23,21:00:00,WET,3.83,2.10,100.0,770.00,84.5
2020-04-23,21:05:00,WET,4.80,2.05,100.0,770.00,73.4
2020-04-23,21:10:00,WET,5.07,2.13,100.0,770.00,64.9
2020-04-23,21:15:00,WET,5.10,2.15,100.0,770.00,59.0
2020-04-23,21:20:00,WET,4.90,2.17,100.0,770.00,61.7
2020-04-23,21:25:00,WET,5.50,2.15,100.0,770.00,66.3
2020-04-23,21:30:00,WET,5.07,2.03,100.0,770.00,84.9
2020-04-23,21:35:00,WET,5.90,2.15,100.0,770.00,106.0
2020-04-23,21:40:00,WET,5.47,2.20,100.0,770.00,101.9
2020-04-23,21:45:00,WET,4.25,2.10,100.0,770.00,91.6
2020-04-23,21:50:00,WET,3.43,2.10,100.0,770.00,88.2
2020-04-23,21:55:00,WET,4.65,2.10,100.0,770.00,77.1
2020-04-23,22:00:00,WET,4.17,2.20,100.0,770.00,74.5
2020-04-23,22:05:00,WET,5.75,2.30,100.0,770.00,86.1
2020-04-23,22:10:00,WET,4.00,2.30,100.0,770.00,94.1
2020-04-23,22:15:00,WET,4.15,2.30,100.0,770.00,91.7
2020-04-23,22:20:00,WET,4.80,2.37,100.0,770.00,101.2
2020-04-23,22:25:00,WET,5.10,2.40,100.0,770.00,92.8
2020-04-23,22:30:00,WET,4.70,2.57,100.0,770.00,96.4
2020-04-23,22:35:00,WET,4.75,2.60,100.0,770.00,93.6
2020-04-23,22:40:00,WET,5.17,2.53,100.0,770.00,87.9
2020-04-23,22:45:00,WET,5.75,2.55,100.0,770.00,93.3
2020-04-23,22:50:00,WET,5.40,2.53,100.0,770.00,85.9
2020-04-23,22:55:00,WET,5.35,2.45,100.0,770.00,94.7
2020-04-23,23:00:00,WET,6.70,2.30,100.0,770.00,97.9
2020-04-23,23:05:00,WET,6.00,2.20,100.0,770.00,102.1
2020-04-23,23:10:00,WET,6.73,2.27,100.0,770.00,98.4
2020-04-23,23:15:00,WET,6.15,2.20,100.0,770.00,95.8
2020-04-23,23:20:00,WET,6.30,2.27,100.0,770.00,96.8
2020-04-23,23:25:00,WET,5.75,2.25,100.0,770.00,93.4
2020-04-23,23:30:00,WET,5.53,2.23,100.0,770.00,88.0
2020-04-23,23:35:00,WET,6.20,2.25,100.0,770.00,91.9
2020-04-23,23:40:00,WET,6.13,2.27,100.0,770.00,84.9
2020-04-23,23:45:00,WET,7.25,2.15,100.0,770.00,87.2
2020-04-23,23:50:00,WET,6.13,2.03,100.0,770.00,87.7
2020-04-23,23:55:00,WET,6.30,1.95,100.0,770.00,87.5
2020-04-24,00:00:00,WET,6.77,1.93,100.0,770.00,92.2
2020-04-24,00:05:00,WET,6.35,1.95,100.0,770.00,107.8
2020-04-24,00:10:00,WET,5.77,1.90,100.0,770.00,111.3
2020-04-24,00:15:00,WET,6.80,1.90,100.0,770.00,107.7
2020-04-24,00:20:00,WET,6.50,1.90,100.0,770.00,100.3
2020-04-24,00:25:00,WET,4.65,1.90,100.0,770.00,102.9
2020-04-24,00:30:00,WET,5.40,2.00,100.0,770.00,107.7
2020-04-24,00:35:00,WET,5.45,2.00,100.0,770.00,111.5
2020-04-24,00:40:00,WET,4.43,2.00,100.0,770.00,116.8
2020-04-24,00:45:00,WET,5.90,1.95,100.0,770.00,108.0
2020-04-24,00:50:00,WET,7.07,1.90,100.0,770.00,93.5
2020-04-24,00:55:00,WET,6.85,1.90,100.0,770.00,89.0
2020-04-24,01:00:00,WET,6.70,1.93,100.0,770.00,100.8
2020-04-24,01:05:00,WET,5.25,1.90,100.0,770.00,101.4
2020-04-24,01:10:00,WET,5.77,1.90,100.0,770.00,99.9
2020-04-24,01:15:00,WET,4.35,1.90,100.0,770.00,104.8
2020-04-24,01:20:00,WET,5.67,1.73,100.0,770.00,98.6
2020-04-24,01:25:00,WET,5.60,1.65,100.0,770.00,90.3
2020-04-24,01:30:00,WET,5.10,1.67,100.0,770.00,85.3
2020-04-24,01:35:00,WET,5.85,1.70,100.0,770.00,86.5
2020-04-24,01:40:00,WET,4.77,1.53,100.0,770.00,84.7
2020-04-24,01:45:00,WET,3.90,1.45,100.0,770.00,90.3
2020-04-24,01:50:00,DRY,5.90,1.23,100.0,770.00,89.6
2020-04-24,01:55:00,WET,5.05,1.45,100.0,770.00,83.0
2020-04-24,02:00:00,WET,5.37,1.50,100.0,770.00,82.3
2020-04-24,02:05:00,WET,5.50,1.50,100.0,770.00,94.8
2020-04-24,02:10:00,DRY,4.63,1.30,100.0,770.00,96.1
2020-04-24,02:15:00,DRY,6.75,1.10,100.0,770.00,98.5
2020-04-24,02:20:00,DRY,4.70,1.23,100.0,770.00,86.1
2020-04-24,02:25:00,DRY,5.10,1.30,100.0,769.50,83.5
2020-04-24,02:30:00,DRY,6.27,1.37,100.0,769.33,92.5
2020-04-24,02:35:00,WET,6.10,1.30,100.0,770.00,94.8
2020-04-24,02:40:00,DRY,5.83,1.30,100.0,769.67,92.6
2020-04-24,02:45:00,DRY,5.70,1.25,100.0,769.00,96.0
2020-04-24,02:50:00,DRY,6.50,1.30,100.0,769.67,98.3
2020-04-24,02:55:00,DRY,6.00,1.25,100.0,769.50,100.5
2020-04-24,03:00:00,WET,6.40,1.67,100.0,769.00,90.5
2020-04-24,03:05:00,WET,6.45,1.85,100.0,769.00,92.9
2020-04-24,03:10:00,WET,6.40,1.80,100.0,769.00,94.3
2020-04-24,03:15:00,WET,7.05,1.70,100.0,769.00,90.8
2020-04-24,03:20:00,WET,5.60,1.63,100.0,769.00,89.3
2020-04-24,03:25:00,WET,7.30,1.45,100.0,769.00,84.3
2020-04-24,03:30:00,WET,6.30,1.50,100.0,769.00,88.5
2020-04-24,03:35:00,WET,7.10,1.45,100.0,769.00,94.0
2020-04-24,03:40:00,WET,7.00,1.40,100.0,769.00,95.2
2020-04-24,03:45:00,DRY,6.55,1.20,100.0,769.00,93.5
2020-04-24,03:50:00,DRY,7.03,1.00,100.0,769.00,90.0
2020-04-24,03:55:00,DRY,6.00,0.75,100.0,769.00,92.0
2020-04-24,04:00:00,DRY,6.10,0.70,100.0,769.00,84.0
2020-04-24,04:05:00,DRY,8.00,0.70,100.0,769.00,92.0
2020-04-24,04:10:00,DRY,6.37,0.30,100.0,769.00,101.4
2020-04-24,04:15:00,DRY,8.35,0.25,100.0,769.00,117.8
2020-04-24,04:20:00,DRY,6.77,-0.27,100.0,769.00,113.7
2020-04-24,04:25:00,DRY,4.10,-0.40,100.0,769.00,89.0
2020-04-24,04:30:00,DRY,6.27,0.03,100.0,769.00,79.4
2020-04-24,04:35:00,DRY,5.00,-0.05,100.0,769.00,74.5
2020-04-24,04:40:00,DRY,6.10,0.00,100.0,769.00,74.0
2020-04-24,04:45:00,DRY,3.80,0.05,100.0,769.00,76.2
2020-04-24,04:50:00,DRY,4.87,-0.03,100.0,769.00,75.0
2020-04-24,04:55:00,DRY,5.95,0.05,100.0,769.00,78.8
2020-04-24,05:00:00,DRY,5.73,0.27,100.0,769.00,97.7
2020-04-24,05:05:00,DRY,5.80,0.65,100.0,769.00,123.6
2020-04-24,05:10:00,WET,5.50,0.77,100.0,769.00,130.5
2020-04-24,05:15:00,DRY,5.30,0.35,100.0,769.00,129.8
2020-04-24,05:20:00,DRY,6.57,-0.03,100.0,769.00,122.1
2020-04-24,05:25:00,DRY,5.35,-0.20,100.0,769.00,112.4
2020-04-24,05:30:00,DRY,5.70,-0.63,100.0,769.00,90.9
2020-04-24,05:35:00,DRY,5.65,-0.70,100.0,769.00,78.2
2020-04-24,05:40:00,DRY,6.73,-0.10,100.0,769.00,82.2
2020-04-24,05:45:00,WET,6.05,0.55,100.0,769.00,75.3
2020-04-24,05:50:00,WET,5.67,0.73,100.0,769.00,93.8
2020-04-24,05:55:00,WET,7.00,0.45,100.0,769.00,113.9
2020-04-24,06:00:00,WET,5.97,0.03,100.0,769.00,113.1
2020-04-24,06:05:00,WET,5.30,0.25,100.0,769.00,93.4
2020-04-24,06:10:00,WET,6.97,0.37,100.0,769.00,99.4
2020-04-24,06:15:00,WET,6.05,0.30,100.0,769.00,88.5
2020-04-24,06:20:00,WET,4.70,0.40,100.0,769.33,90.7
2020-04-24,06:25:00,DRY,5.25,0.00,100.0,769.00,95.3
2020-04-24,06:30:00,DRY,6.45,-1.15,100.0,769.50,82.3
2020-04-24,06:35:00,DRY,7.00,-1.50,100.0,769.50,73.8
2020-04-24,06:40:00,DRY,7.47,-1.63,100.0,769.67,63.9
2020-04-24,06:45:00,DRY,5.60,-1.60,98.0,770.00,18.9
2020-04-24,06:50:00,DRY,6.23,-1.37,93.0,769.67,15.4
2020-04-24,06:55:00,DRY,5.95,-1.00,88.0,770.00,22.0
2020-04-24,07:00:00,DRY,6.57,0.30,70.3,770.00,35.2
2020-04-24,07:05:00,DRY,5.90,0.60,63.0,770.00,71.0
2020-04-24,07:10:00,DRY,6.23,0.80,64.0,770.00,105.6
2020-04-24,07:15:00,DRY,5.10,0.85,64.0,770.00,93.6
2020-04-24,07:20:00,DRY,5.87,1.00,64.0,770.00,99.0
2020-04-24,07:25:00,DRY,7.65,1.25,59.0,770.00,102.8
2020-04-24,07:30:00,DRY,7.03,1.33,64.7,770.00,114.2
2020-04-24,07:35:00,DRY,4.75,1.45,58.0,770.00,137.4
2020-04-24,07:40:00,DRY,5.17,1.23,59.3,770.00,151.3
2020-04-24,07:45:00,DRY,6.15,1.25,60.0,770.00,171.4
2020-04-24,07:50:00,DRY,5.40,1.30,62.0,770.00,196.0
2020-04-24,07:55:00,DRY,4.85,1.40,59.0,770.00,225.6
2020-04-24,08:00:00,DRY,6.63,1.63,65.3,770.00,240.9
2020-04-24,08:05:00,DRY,6.00,1.95,66.0,770.00,264.9
2020-04-24,08:10:00,DRY,5.87,1.83,64.7,770.00,297.3
2020-04-24,08:15:00,DRY,6.20,1.85,66.5,770.00,317.9
2020-04-24,08:20:00,DRY,5.47,1.87,66.0,770.00,347.5
2020-04-24,08:25:00,DRY,5.80,1.80,66.0,770.00,376.3
2020-04-24,08:30:00,DRY,5.70,1.80,67.7,770.00,397.8
2020-04-24,08:35:00,DRY,6.50,1.75,66.5,770.00,424.7
2020-04-24,08:40:00,DRY,5.93,1.93,66.0,770.00,451.9
2020-04-24,08:45:00,DRY,5.95,1.90,63.0,770.00,472.5
2020-04-24,08:50:00,DRY,6.07,1.87,70.0,770.00,500.0
2020-04-24,08:55:00,DRY,4.40,1.80,76.0,770.00,524.8
2020-04-24,09:00:00,DRY,4.50,2.47,67.0,770.33,548.0
2020-04-24,09:05:00,DRY,5.25,2.60,66.0,771.00,571.5
2020-04-24,09:10:00,DRY,4.77,2.80,66.3,771.00,591.4
2020-04-24,09:15:00,DRY,3.45,2.90,63.5,771.00,612.4
2020-04-24,09:20:00,DRY,4.20,3.17,63.7,771.00,633.3
2020-04-24,09:25:00,DRY,4.70,3.30,63.5,771.00,654.2
2020-04-24,09:30:00,DRY,4.53,3.27,67.3,771.00,674.1
2020-04-24,09:35:00,DRY,4.20,3.40,67.5,771.00,693.6
2020-04-24,09:40:00,DRY,4.50,3.23,64.3,771.00,711.9
2020-04-24,09:45:00,DRY,4.10,3.20,67.0,771.00,730.2
2020-04-24,09:50:00,DRY,3.27,3.17,73.7,771.00,749.2
2020-04-24,09:55:00,DRY,3.70,3.20,63.0,771.00,767.3
2020-04-24,10:00:00,DRY,3.27,3.27,71.0,771.00,786.9
2020-04-24,10:05:00,DRY,3.95,3.45,64.0,771.00,805.8
2020-04-24,10:10:00,DRY,3.20,3.33,72.3,771.00,825.5
2020-04-24,10:15:00,DRY,4.40,3.55,73.5,771.00,845.1
2020-04-24,10:20:00,DRY,4.47,3.47,72.0,771.00,874.3
2020-04-24,10:25:00,DRY,3.80,3.45,75.5,771.00,929.8
2020-04-24,10:30:00,DRY,3.20,3.30,80.3,771.00,954.0
2020-04-24,10:35:00,DRY,2.05,3.45,83.5,771.00,968.8
2020-04-24,10:40:00,DRY,2.90,4.10,74.3,771.00,968.3
2020-04-24,10:45:00,DRY,2.10,3.85,76.5,771.00,974.7
2020-04-24,10:50:00,DRY,2.53,4.03,71.0,771.00,985.4
2020-04-24,10:55:00,DRY,3.05,4.35,68.5,771.00,998.6
2020-04-24,11:00:00,DRY,1.90,4.57,68.7,771.00,1010.3
2020-04-24,11:05:00,DRY,3.00,4.45,73.5,771.00,1021.5
2020-04-24,11:10:00,DRY,3.17,4.50,64.3,771.00,1031.7
2020-04-24,11:15:00,DRY,3.30,4.90,72.0,771.00,1041.8
2020-04-24,11:20:00,DRY,2.80,5.00,64.3,771.00,1052.8
2020-04-24,11:25:00,DRY,2.85,5.30,63.5,771.00,1062.3
2020-04-24,11:30:00,DRY,3.90,5.30,74.3,771.00,1072.5
2020-04-24,11:35:00,DRY,2.75,5.15,66.0,771.00,1081.7
2020-04-24,11:40:00,DRY,2.53,4.73,72.3,771.00,1094.2
2020-04-24,11:45:00,DRY,2.55,5.40,50.5,771.00,1102.5
2020-04-24,11:50:00,DRY,2.50,5.57,49.7,771.00,1108.5
2020-04-24,11:55:00,DRY,2.65,5.50,44.5,771.00,1120.5
2020-04-24,12:00:00,DRY,2.00,5.77,39.0,771.00,1130.3
2020-04-24,12:05:00,DRY,2.05,5.50,53.5,771.00,1141.0
2020-04-24,12:10:00,DRY,2.00,5.60,53.7,771.00,1155.0
2020-04-24,12:15:00,DRY,1.65,5.70,53.0,771.00,1158.0
2020-04-24,12:20:00,DRY,2.40,6.00,63.0,771.00,1158.9
2020-04-24,12:25:00,DRY,2.40,5.90,63.5,771.00,1156.8
2020-04-24,12:30:00,DRY,2.67,6.07,55.3,771.00,1160.3
2020-04-24,12:35:00,DRY,3.15,6.15,63.0,771.00,1174.0
2020-04-24,12:40:00,DRY,1.83,5.70,58.0,771.00,1167.7
2020-04-24,12:45:00,DRY,2.60,6.15,66.5,771.00,1174.8
2020-04-24,12:50:00,DRY,3.07,6.20,56.7,771.00,1167.0
2020-04-24,12:55:00,DRY,3.35,5.90,45.5,771.00,1165.2
2020-04-24,13:00:00,DRY,2.97,6.93,68.0,771.00,1166.5
2020-04-24,13:05:00,DRY,2.35,6.80,56.5,771.00,1170.8
2020-04-24,13:10:00,DRY,2.87,7.07,60.0,771.00,1136.4
2020-04-24,13:15:00,DRY,2.50,6.05,82.0,771.00,804.4
2020-04-24,13:20:00,DRY,2.00,5.73,74.7,771.00,992.7
2020-04-24,13:25:00,DRY,3.10,5.80,57.5,771.00,1176.2